Location: Bothwell
(42.3833°S, 147.0000°E)
Time: 22:35:56
(UTC+11:00)

RS-44 - Pass Details

Date: 01 October 2022
Orbit: 1175 x 1510 km, 82.5° (Epoch: 29 November)

Event Time Altitude Azimuth Distance (km) Brightness Sun altitude
Exits shadow 21:45:33 40° 124° (SE) 2,104 ? -34.9°
Drops below altitude 10° 21:51:53 10° 161° (SSE) 3,700 ? -35.7°
Sets 21:54:58 0° 166° (SSE) 4,686 ? -36.1°
